This is the latest recevied weather packets stored in our database for station/object N5CSU. If no packets are shown the sender has not sent any weather packets the latest 10 day(s).
| Time | Temp. | Humidity | Pressure | Rain* | Wind** | Luminosity | Snow |
|---|---|---|---|---|---|---|---|
| 1778016803 | 30.56° C | 65% | 1004 hPa | 0 mm | - | 35 W/m² | - |
| 1778016499 | 30.56° C | 65% | 1003.9 hPa | 0 mm | - | 17 W/m² | - |
| 1778016196 | 30.56° C | 67% | 1004.1 hPa | 0 mm | - | 14 W/m² | - |
| 1778015892 | 30.56° C | 65% | 1004.1 hPa | 0 mm | - | 15 W/m² | - |
| 1778015590 | 31.11° C | 64% | 1004.1 hPa | 0 mm | - | 18 W/m² | - |
| 1778015286 | 31.11° C | 63% | 1004.4 hPa | 0 mm | - | 20 W/m² | - |
| 1778014983 | 30.56° C | 65% | 1004.2 hPa | 0 mm | - | 69 W/m² | - |
| 1778014680 | 30.56° C | 67% | 1004.3 hPa | 0 mm | - | 149 W/m² | - |
| 1778014379 | 30.56° C | 67% | 1004.4 hPa | 0 mm | - | 11 W/m² | - |
| 1778014075 | 30.56° C | 65% | 1004.4 hPa | 0 mm | - | 16 W/m² | - |
| 1778013773 | 30.56° C | 64% | 1004.5 hPa | 0 mm | - | 22 W/m² | - |
| 1778013470 | 30.56° C | 63% | 1004.7 hPa | 0 mm | - | 14 W/m² | - |
| 1778013167 | 30.56° C | 63% | 1004.5 hPa | 0 mm | - | 18 W/m² | - |
| 1778012862 | 30.56° C | 63% | 1004.7 hPa | 0 mm | - | 13 W/m² | - |
| 1778012559 | 30.56° C | 64% | 1004.7 hPa | 0 mm | - | 14 W/m² | - |
| 1778012256 | 30.56° C | 68% | 1004.8 hPa | 0 mm | - | 23 W/m² | - |
| 1778011953 | 30° C | 65% | 1004.9 hPa | 0 mm | - | 15 W/m² | - |
| 1778011651 | 30° C | 65% | 1005 hPa | 0 mm | - | 18 W/m² | - |
| 1778011348 | 30° C | 67% | 1005 hPa | 0 mm | - | 16 W/m² | - |
| 1778011043 | 30° C | 66% | 1004.9 hPa | 0 mm | - | 15 W/m² | - |
| 1778010741 | 30° C | 68% | 1005 hPa | 0 mm | - | 17 W/m² | - |
| 1778010438 | 29.44° C | 67% | 1004.9 hPa | 0 mm | - | 19 W/m² | - |
| 1778010134 | 29.44° C | 68% | 1004.9 hPa | 0 mm | - | 22 W/m² | - |
| 1778009831 | 29.44° C | 69% | 1005.2 hPa | 0 mm | - | 56 W/m² | - |
| 1778009528 | 29.44° C | 68% | 1004.9 hPa | 0 mm | - | 75 W/m² | - |
* Rain latest hour (hover to see other rain measurements)
** Current wind speed in m/s (hover to see current wind gust speed)